Flag for Spain Weather past 2 weeks in Sevilla, Spain

Now
64 °F

Clear.


Feels Like: 64 °F
Forecast: 64 / 82 °F
Wind: No wind

Location: Sevilla / San Pablo

Current Time: May 28, 2015 at 7:15:13 AM

Latest Report: May 28, 2015 at 6:30 AM


Visibility: 10 mi

Pressure: 29.95 "Hg

Humidity: 60%

Dew point: 50 °F

Location of SevillaLocation

Historic Weather in Sevilla — Graph

°F

Sevilla temperature yesterday

Maximum temperature yesterday: 93 °F (at 6:00 PM)
Minimum temperature yesterday: 61 °F (at 6:00 AM)
Average temperature yesterday: 78 °F

Past Weeks' High & Low Weather Summary

 TemperatureHumidityPressure
High102 °F (May 13, 4:30 PM)94% (May 20, 6:00 AM)30.18 "Hg (May 20, 6:00 AM)
Low57 °F (May 20, 6:00 AM)8% (May 14, 6:30 PM)29.77 "Hg (May 19, 7:30 PM)
Average75 °F43%30.00 "Hg
* Reported May 13 6:00 AM — May 28 6:00 AM, Sevilla, Weather by CustomWeather, © 2015

Note: Actual official high and low records may vary slightly from our data, if they occured in-between our weather recording intervals... More about our weather records

Advertising

Sevilla weather history for previous 24 hours

 ConditionsComfort  
Time TempWeatherWind HumidityBarometerVisibility
6:00 AM
Thu, May 28
64 °FClear.1 mph56%29.98 "Hg10 mi
5:30 AM64 °FClear.3 mph56%29.98 "Hg10 mi
5:00 AM64 °FClear.2 mph60%29.98 "Hg10 mi
4:30 AM66 °FClear.1 mph56%29.95 "Hg10 mi
4:00 AM66 °FClear.No wind56%29.95 "Hg10 mi
3:30 AM66 °FClear.2 mph56%29.98 "Hg10 mi
3:00 AM70 °FClear.No wind46%29.98 "Hg10 mi
2:30 AM72 °FClear.3 mph38%29.98 "Hg10 mi
2:00 AM72 °FPassing clouds.3 mph41%29.98 "HgN/A
1:30 AM72 °FClear.2 mph44%29.98 "Hg10 mi
1:00 AM72 °FClear.2 mph44%29.98 "Hg10 mi
12:30 AM73 °FClear.2 mph41%29.98 "Hg10 mi
12:00 AM73 °FClear.5 mph38%29.95 "Hg10 mi
11:30 PM
Wed, May 27
77 °FPassing clouds.7 mph34%29.95 "HgN/A
11:00 PM79 °FPassing clouds.8 mph32%29.95 "HgN/A
10:30 PM81 °FPassing clouds.8 mph30%29.95 "HgN/A
10:00 PM82 °FPassing clouds.12 mph28%29.92 "HgN/A
9:30 PM82 °FSunny.9 mph28%29.92 "Hg10 mi
9:00 PM84 °FPassing clouds.12 mph27%29.92 "HgN/A
8:30 PM86 °FPassing clouds.14 mph25%29.92 "HgN/A
8:00 PM88 °FPassing clouds.15 mph24%29.89 "HgN/A
7:30 PM91 °FPassing clouds.7 mph21%29.89 "HgN/A
7:00 PM93 °FSunny.3 mph14%29.89 "Hg10 mi
6:30 PM93 °FSunny.2 mph15%29.89 "Hg10 mi
6:00 PM93 °FSunny.5 mph15%29.92 "Hg10 mi
5:30 PM91 °FSunny.2 mph15%29.92 "Hg10 mi
5:00 PM91 °FPassing clouds.8 mph18%29.92 "HgN/A
4:30 PM91 °FSunny.3 mph20%29.92 "Hg10 mi
4:00 PM91 °FPassing clouds.5 mph21%29.92 "HgN/A
3:30 PM90 °FPassing clouds.3 mph22%29.95 "HgN/A
3:00 PM88 °FSunny.1 mph24%29.95 "Hg10 mi
2:30 PM88 °FSunny.1 mph25%29.95 "Hg10 mi
2:00 PM86 °FSunny.3 mph27%29.95 "Hg10 mi
1:30 PM84 °FSunny.2 mph29%29.98 "Hg10 mi
1:00 PM84 °FSunny.1 mph29%29.98 "Hg10 mi
12:30 PM82 °FSunny.1 mph30%29.98 "Hg10 mi
12:00 PM81 °FSunny.2 mph32%29.98 "Hg10 mi
11:30 AM79 °FSunny.1 mph37%30.01 "Hg10 mi
11:00 AM77 °FPassing clouds.3 mph39%30.01 "HgN/A
10:30 AM75 °FPassing clouds.7 mph47%30.01 "HgN/A
10:00 AM72 °FPassing clouds.7 mph53%30.01 "HgN/A
9:30 AM70 °FPassing clouds.6 mph60%29.98 "HgN/A
9:00 AM66 °FPassing clouds.5 mph73%29.98 "HgN/A
8:30 AM64 °FPassing clouds.3 mph78%29.98 "HgN/A
8:00 AM64 °FClear.1 mph73%29.98 "Hg10 mi
7:30 AM63 °FClear.1 mph83%29.98 "Hg10 mi
7:00 AM63 °FClear.2 mph77%29.98 "Hg10 mi
Weather by CustomWeather, © 2015

See weather overviewHow to use our weather pages